Tracking 29892 objects as of 21-Nov-2024
HD Live streaming from Space Station
objects crossing your sky now

COSMOS 2491 DEB

Track COSMOS 2491 DEB now!
10-day predictions


NORAD ID: 44996
Int'l Code: 2013-076S
Perigee: 1,487.5 km
Apogee: 1,512.8 km
Inclination: 82.5 °
Period: 115.8 minutes
Semi major axis: 7871 km
RCS: Unknown
Launch date: December 25, 2013
Source: Commonwealth of Independent States (former USSR) (CIS)
Launch site: PLESETSK MISSILE AND SPACE COMPLEX (PKMTR)

Note: This is SATELLITE DEBRIS
Your satellite tracking list
Your tracking list is empty




NASA's NSSDC Master Catalog

Two Line Element Set (TLE):
1 44996U 13076R   24317.32649246  .00000280  00000-0  19409-2 0  9997
2 44996  82.4825 171.7038 0016042 276.7951  83.1303 12.43215208220055
Source of the keplerian elements: AFSPC